Wind_Speed
98 95 92 89 87 82 79 77 75 72 69 67 64 62 62 59 55 55 56 56 56 57 58 59 56 50 49 49 41 29 25 28 29 24 14 9 25 21 19 24 13 11 8
96 92 90 87 82 79 76 73 73 69 69 66 63 60 57 53 52 53 55 54 58 57 57 58 51 47 48 38 30 22 22 22 22 11 8 15 22 25 21 19 13 14 7
94 91 86 80 76 74 75 74 72 68 66 66 64 60 56 56 54 56 57 57 56 54 56 50 49 47 37 29 23 19 19 18 15 6 10 17 14 13 14 13 14 14 12
80 78 72 68 65 65 67 69 68 64 63 62 60 58 57 54 56 56 55 53 51 52 48 46 47 40 28 22 17 19 14 16 11 9 12 13 14 14 11 13 16 11 8
48 42 43 42 44 46 49 51 51 53 54 56 56 56 54 52 51 49 47 46 48 45 43 45 41 32 25 18 19 18 16 15 11 12 11 15 15 14 16 14 11 7 7
37 31 32 30 31 32 33 35 40 44 46 47 48 46 45 43 41 40 41 43 39 41 44 39 35 29 23 17 18 21 18 17 13 11 10 15 17 18 13 15 14 11 9
33 31 28 24 19 17 16 23 27 31 33 34 35 34 33 32 32 37 37 34 38 42 37 30 27 23 20 21 21 16 15 14 13 10 12 14 17 21 16 12 8 12 11
42 36 29 22 18 13 9 9 13 14 19 23 24 26 25 27 31 30 31 35 36 32 28 26 25 23 21 19 16 16 17 15 13 14 14 14 15 13 14 14 14 12 12
42 34 28 23 16 7 2 3 10 18 18 18 18 19 21 24 25 28 33 32 28 25 21 18 18 18 20 23 22 18 20 19 18 15 15 16 17 16 18 20 18 17 17
41 34 26 21 15 5 6 8 10 12 12 13 15 18 20 22 27 31 27 22 20 18 17 19 17 16 18 21 21 23 24 24 22 20 19 18 18 17 18 20 21 24 25
39 32 26 21 14 12 11 10 15 13 11 13 16 20 23 27 28 22 17 16 14 14 13 14 19 21 23 25 28 27 22 29 24 21 21 16 11 12 15 19 17 15 15
37 33 26 22 11 6 9 15 16 12 14 19 24 26 26 23 17 14 12 10 9 7 6 10 14 15 15 18 21 23 22 23 21 19 21 13 10 10 7 6 6 7 9
30 21 14 10 11 13 15 18 12 14 19 21 20 18 15 12 11 11 7 8 8 4 4 7 5 7 8 5 8 11 17 21 21 20 18 8 7 13 13 11 10 10 11
46 19 11 10 11 11 16 15 14 18 18 13 9 10 9 10 11 8 8 10 11 10 14 19 21 22 22 20 22 22 21 21 20 17 14 15 20 17 13 11 11 13 14
23 12 10 8 13 18 17 15 15 14 9 5 7 8 10 10 10 9 14 16 19 22 28 35 38 40 42 43 43 40 37 35 31 25 20 16 15 11 9 9 9 10 10
25 17 15 13 14 12 14 15 14 10 5 2 8 13 10 8 12 17 24 28 28 28 29 30 30 31 31 33 33 33 31 28 25 22 18 14 10 8 6 5 4 4 5
14 11 13 12 11 13 13 13 12 7 2 4 17 12 12 15 22 30 30 29 26 25 23 19 21 21 23 27 26 25 24 22 21 19 17 13 9 4 2 5 8 10 12
10 11 8 8 10 10 11 11 8 6 5 15 17 15 19 23 28 27 28 26 23 19 18 15 14 14 12 17 20 20 17 14 13 11 9 8 7 4 2 7 11 14 15
9 8 9 8 8 8 8 7 7 9 11 18 17 19 23 26 26 24 22 21 19 15 12 10 7 8 6 7 8 9 7 6 4 4 4 9 13 10 12 11 10 14 18
17 13 8 4 2 3 4 6 11 14 15 21 19 18 23 23 21 19 20 17 14 15 13 8 7 5 4 5 4 6 7 8 10 12 15 18 15 16 15 13 16 17 19
17 13 10 5 2 2 2 2 8 16 17 20 23 20 21 24 21 20 18 17 15 13 13 13 12 10 8 9 12 14 14 16 17 17 20 22 19 20 21 21 21 23 25
11 8 5 1 3 3 1 3 7 15 19 20 24 26 22 22 23 22 20 20 19 17 16 16 16 16 15 15 17 17 17 22 24 24 24 25 25 25 24 24 23 22 21
16 6 6 5 2 1 1 2 3 8 16 20 24 27 31 27 26 23 22 20 19 19 18 17 16 18 19 20 22 23 26 26 27 29 28 29 29 29 30 31 31 30 30
11 6 5 2 3 7 3 1 2 3 10 19 22 26 27 27 29 27 22 22 22 20 21 20 20 21 22 24 25 28 30 30 30 32 33 33 34 34 31 29 29 29 30
11 7 7 3 4 6 5 3 8 2 3 10 15 22 25 27 25 24 24 23 21 20 20 22 24 26 25 26 27 29 32 33 32 28 25 23 22 22 23 21 20 19 19
13 11 7 3 5 4 6 3 5 4 2 3 8 11 16 17 19 22 23 24 24 23 24 25 27 26 25 23 20 17 17 18 20 21 23 24 26 27 28 29 30 30 33
Wind_Direction
255 257 258 260 261 263 264 266 268 270 269 270 271 274 275 279 284 289 291 293 293 297 299 302 302 304 305 306 302 295 298 298 294 289 275 190 171 173 171 175 177 190 178
254 255 256 258 261 263 264 264 265 266 267 267 267 268 274 279 283 286 288 290 295 295 298 301 300 303 305 302 293 290 293 301 305 288 215 181 179 190 190 193 201 212 225
252 253 255 258 260 261 260 260 261 261 263 264 267 269 272 275 281 282 285 289 291 293 296 297 299 303 303 293 284 289 292 304 313 231 210 181 178 186 189 190 200 231 270
251 255 257 256 256 255 254 254 254 255 256 260 264 267 268 271 274 278 283 286 287 290 293 295 297 297 295 276 271 286 294 295 318 216 219 171 178 186 190 203 220 251 264
246 243 240 238 242 245 247 247 248 249 252 256 258 260 263 266 270 276 280 283 286 290 293 293 290 289 280 265 267 276 285 283 291 241 230 197 192 193 194 208 223 211 239
235 219 216 216 220 227 232 236 241 244 248 251 254 257 259 264 269 275 280 281 286 290 290 287 283 280 273 264 274 276 272 268 268 224 229 199 195 194 207 204 214 226 254
192 188 183 185 190 201 213 237 243 242 244 248 249 251 255 262 272 276 277 284 289 289 293 289 277 275 270 263 271 264 251 242 249 221 223 218 213 215 210 193 232 234 240
164 158 152 146 154 155 184 232 234 239 240 238 242 248 261 269 268 273 282 286 283 285 286 282 277 273 267 258 249 249 243 231 238 230 224 223 221 221 228 239 244 246 247
147 138 133 130 114 124 115 310 221 251 244 245 253 261 261 262 271 279 281 279 281 289 287 279 274 270 259 244 240 237 240 238 232 226 220 220 230 228 242 243 252 245 259
142 138 129 122 118 146 266 303 319 276 265 260 257 256 261 273 276 276 273 275 286 280 277 279 277 272 267 260 252 242 236 230 230 221 218 219 229 242 255 261 260 257 262
135 130 127 123 147 224 276 318 318 285 266 269 274 278 277 273 271 261 262 271 271 271 270 274 277 273 265 256 254 252 235 226 220 213 208 208 218 228 250 263 257 245 232
134 130 145 157 186 225 290 316 307 298 297 286 280 273 270 263 242 242 254 254 249 238 297 304 296 280 261 247 239 233 229 205 199 194 186 198 214 256 214 199 209 203 189
125 133 140 161 219 249 282 310 300 293 279 277 268 262 240 221 226 223 235 240 194 156 28 6 34 78 96 129 165 174 174 162 160 162 176 199 172 140 127 118 112 138 155
142 161 153 205 237 270 303 310 285 279 278 274 242 211 203 206 196 211 196 177 158 126 88 78 81 83 88 100 108 116 126 132 137 141 149 150 144 134 119 111 114 115 125
169 165 193 220 262 301 294 273 279 287 283 257 203 189 173 181 206 196 163 149 131 117 103 97 90 87 88 89 92 95 97 97 95 101 115 128 127 105 103 106 110 123 134
188 203 229 259 290 282 268 272 282 272 279 240 162 159 176 177 166 158 146 136 126 119 111 106 100 93 92 94 95 94 96 96 96 97 98 103 109 108 117 127 143 164 195
192 207 243 261 260 267 266 268 268 243 249 161 157 159 162 159 151 148 145 138 132 128 120 111 107 99 97 99 97 97 99 100 99 101 102 104 111 126 206 238 247 251 250
204 206 202 250 257 247 249 255 245 203 178 162 163 168 166 158 156 154 147 142 146 141 135 133 120 114 98 119 112 108 106 101 92 78 72 51 25 357 298 275 267 267 262
173 201 206 200 216 234 242 232 202 191 180 171 176 176 171 164 163 164 159 157 163 163 165 162 145 132 114 139 134 128 94 48 21 347 354 343 337 330 328 313 298 269 263
148 141 140 156 219 243 247 218 198 194 187 185 187 181 181 176 179 186 188 183 173 185 194 201 199 201 171 157 180 237 261 284 301 303 309 317 316 317 312 299 299 282 283
127 111 90 72 315 240 198 189 193 191 198 199 195 189 189 192 197 197 196 192 200 211 222 222 225 231 241 254 251 255 264 283 292 298 305 309 302 304 302 293 294 287 279
137 127 99 69 165 145 83 158 173 194 200 209 206 206 205 199 199 206 210 215 220 223 225 232 241 244 255 261 273 271 271 289 294 298 295 290 288 292 288 289 285 281 274
146 126 109 68 170 146 143 131 187 192 204 210 216 210 215 215 214 214 223 224 229 238 240 249 258 268 271 269 274 271 274 281 283 287 287 288 287 286 287 284 283 280 279
164 138 132 17 343 340 315 338 340 234 202 206 218 221 218 219 223 229 235 240 240 244 251 257 261 265 267 270 272 271 274 276 279 281 285 288 289 288 286 286 286 287 287
184 166 137 210 283 321 290 357 10 345 201 192 203 220 223 224 228 231 234 237 237 240 249 255 259 268 270 268 272 275 277 283 289 291 292 293 293 293 293 291 290 288 285
204 198 181 225 250 285 262 248 351 352 346 122 151 186 217 225 230 235 239 239 239 241 245 254 260 265 271 278 281 283 285 288 292 294 295 297 298 297 295 295 296 297 296
Height
10631 10640 10648 10655 10663 10671 10676 10679 10683 10686 10688 10689 10690 10689 10689 10689 10689 10687 10685 10682 10677 10673 10668 10663 10656 10652 10646 10640 10634 10630 10626 10624 10620 10617 10616 10618 10620 10623 10627 10631 10635 10638 10639
10610 10621 10630 10639 10649 10657 10661 10662 10664 10669 10671 10674 10675 10675 10676 10675 10676 10675 10674 10670 10667 10662 10657 10652 10646 10643 10636 10630 10627 10624 10622 10619 10615 10612 10613 10617 10621 10623 10626 10630 10634 10637 10640
10592 10603 10615 10628 10635 10639 10642 10644 10647 10652 10655 10657 10660 10662 10663 10663 10664 10663 10661 10659 10656 10652 10647 10642 10637 10633 10628 10624 10622 10619 10618 10616 10612 10611 10613 10617 10620 10623 10625 10629 10634 10636 10637
10580 10593 10604 10609 10613 10617 10622 10626 10630 10636 10639 10643 10646 10648 10649 10651 10652 10651 10651 10649 10646 10643 10637 10632 10627 10624 10621 10619 10617 10615 10614 10613 10612 10611 10612 10616 10619 10622 10625 10629 10632 10635 10635
10571 10581 10588 10593 10598 10603 10606 10610 10615 10620 10625 10629 10632 10634 10637 10639 10639 10640 10640 10638 10635 10630 10627 10622 10618 10616 10614 10612 10612 10611 10611 10610 10610 10610 10613 10615 10618 10621 10624 10626 10629 10632 10633
10561 10569 10576 10582 10586 10590 10595 10599 10603 10608 10612 10616 10619 10623 10625 10628 10629 10629 10630 10628 10624 10620 10616 10612 10609 10608 10607 10606 10607 10606 10606 10607 10607 10607 10610 10613 10616 10620 10623 10625 10627 10629 10630
10553 10560 10568 10575 10580 10584 10589 10593 10598 10600 10603 10607 10611 10613 10617 10618 10619 10620 10620 10617 10614 10610 10607 10603 10601 10600 10599 10600 10600 10601 10601 10603 10603 10604 10607 10610 10614 10618 10620 10621 10624 10626 10628
10546 10555 10561 10567 10574 10580 10586 10592 10595 10596 10598 10600 10603 10606 10607 10609 10611 10612 10610 10608 10605 10602 10599 10596 10594 10592 10592 10593 10594 10596 10598 10599 10601 10602 10604 10608 10611 10614 10616 10619 10621 10622 10624
10539 10548 10556 10561 10568 10577 10583 10590 10594 10593 10593 10594 10595 10598 10601 10603 10603 10603 10601 10599 10596 10594 10591 10589 10587 10586 10586 10587 10589 10591 10593 10596 10598 10599 10602 10605 10608 10610 10612 10615 10616 10617 10619
10533 10545 10552 10557 10564 10580 10586 10587 10587 10586 10587 10588 10591 10593 10595 10595 10595 10595 10594 10592 10590 10588 10586 10585 10583 10582 10581 10581 10582 10585 10587 10591 10593 10596 10599 10602 10605 10607 10609 10610 10611 10611 10613
10531 10540 10548 10557 10567 10579 10581 10580 10581 10582 10582 10584 10585 10586 10587 10588 10589 10588 10587 10587 10586 10585 10584 10582 10579 10577 10575 10575 10574 10576 10580 10584 10588 10591 10595 10600 10603 10604 10605 10605 10604 10605 10606
10526 10536 10550 10557 10569 10573 10575 10577 10577 10576 10577 10578 10578 10578 10578 10580 10581 10582 10583 10583 10584 10583 10581 10578 10574 10570 10567 10566 10567 10569 10572 10578 10583 10588 10594 10599 10600 10601 10602 10602 10603 10603 10604
10526 10536 10547 10558 10565 10569 10571 10571 10571 10572 10573 10571 10570 10570 10571 10574 10577 10579 10580 10581 10582 10582 10581 10577 10572 10567 10564 10563 10564 10566 10571 10577 10583 10589 10594 10598 10600 10602 10603 10604 10604 10605 10607
10525 10543 10551 10557 10562 10565 10565 10566 10568 10568 10567 10565 10564 10566 10568 10571 10574 10577 10578 10580 10583 10583 10583 10579 10575 10572 10570 10570 10570 10573 10577 10582 10587 10591 10595 10599 10602 10604 10606 10608 10609 10610 10611
10536 10542 10550 10556 10558 10560 10562 10564 10564 10562 10561 10561 10562 10564 10568 10571 10573 10576 10579 10582 10585 10586 10586 10584 10583 10581 10580 10580 10580 10582 10585 10588 10591 10595 10599 10603 10605 10607 10608 10610 10611 10613 10615
10536 10543 10551 10554 10556 10557 10560 10560 10559 10559 10559 10559 10561 10565 10568 10570 10572 10576 10581 10585 10588 10589 10590 10589 10589 10588 10589 10589 10589 10590 10593 10596 10599 10602 10605 10607 10609 10610 10611 10613 10614 10615 10616
10539 10545 10549 10551 10553 10554 10556 10556 10556 10557 10557 10559 10563 10566 10568 10571 10574 10578 10582 10585 10589 10591 10592 10593 10594 10594 10594 10594 10595 10597 10599 10602 10604 10606 10608 10610 10611 10612 10612 10613 10613 10614 10614
10539 10542 10544 10546 10549 10552 10554 10554 10554 10554 10557 10560 10564 10567 10570 10573 10577 10581 10584 10587 10590 10592 10594 10596 10597 10598 10599 10599 10600 10601 10604 10606 10607 10609 10610 10611 10612 10611 10611 10610 10610 10610 10609
10536 10540 10542 10544 10549 10550 10550 10550 10551 10553 10556 10560 10564 10567 10571 10575 10580 10583 10585 10589 10591 10594 10596 10597 10599 10601 10601 10602 10603 10604 10605 10607 10608 10610 10610 10610 10610 10609 10609 10608 10606 10605 10604
10536 10539 10542 10546 10547 10547 10547 10548 10549 10552 10556 10561 10565 10569 10574 10577 10581 10584 10586 10589 10591 10593 10595 10597 10599 10600 10601 10602 10604 10605 10605 10606 10607 10608 10608 10607 10606 10605 10604 10603 10602 10601 10599
10536 10541 10542 10544 10547 10547 10547 10548 10550 10553 10556 10561 10566 10570 10574 10577 10580 10583 10585 10587 10589 10591 10593 10594 10596 10598 10599 10600 10601 10602 10602 10602 10603 10603 10602 10601 10600 10599 10598 10596 10595 10592 10591
10537 10541 10543 10545 10547 10547 10548 10549 10550 10552 10556 10560 10565 10570 10573 10575 10578 10580 10582 10584 10586 10588 10590 10592 10593 10594 10595 10596 10597 10597 10597 10597 10597 10596 10594 10593 10591 10590 10589 10588 10586 10584 10582
10538 10541 10543 10544 10546 10547 10549 10549 10551 10552 10555 10558 10561 10565 10568 10572 10574 10577 10579 10581 10583 10585 10588 10588 10589 10590 10591 10591 10591 10591 10591 10590 10590 10589 10587 10585 10583 10582 10580 10578 10576 10574 10572
10536 10540 10542 10544 10547 10548 10549 10550 10551 10552 10552 10555 10557 10561 10564 10568 10571 10574 10576 10578 10580 10582 10583 10584 10584 10585 10585 10585 10584 10584 10583 10582 10582 10580 10578 10576 10573 10571 10569 10567 10564 10562 10559
10536 10540 10542 10544 10547 10549 10549 10551 10552 10552 10552 10553 10555 10559 10562 10565 10567 10570 10571 10573 10575 10576 10577 10577 10578 10578 10578 10577 10576 10575 10575 10575 10573 10571 10568 10566 10564 10563 10561 10558 10556 10554 10552
10534 10539 10542 10544 10546 10548 10550 10552 10553 10553 10553 10554 10555 10558 10561 10562 10563 10565 10566 10567 10569 10570 10570 10571 10571 10572 10571 10570 10569 10569 10568 10567 10566 10565 10563 10560 10559 10557 10555 10552 10550 10548 10545